WetterOnline ( https://www.wetteronline.de )

Wetter aktuell Bonn

Aktuelles Wetter: Königswinter-Heiderhof (147m)

6-stündlich | Neueste Meldungen
Ortszeit Temperatur Wetter
So, 28.02. 1:00 3.0° C bedeckt
Sa, 27.02. 19:00 6.1° C wolkenlos
Sa, 27.02. 13:00 6.6° C leicht bewölkt
Sa, 27.02. 7:00 2.3° C bedeckt
Sa, 27.02. 1:00 3.5° C wolkenlos
Fr, 26.02. 19:00 8.2° C bewölkt
Fr, 26.02. 13:00 8.6° C wolkig
Fr, 26.02. 7:00 7.1° C leichter Regen
Ortszeit Temperatur Wetter
So, 28.02. 4:00 2.8° C wolkig
So, 28.02. 3:50 2.8° C wolkig
So, 28.02. 3:40 2.9° C wolkig
So, 28.02. 3:30 3.0° C wolkig
So, 28.02. 3:20 3.0° C wolkig
So, 28.02. 3:10 2.7° C bewölkt
So, 28.02. 3:00 2.9° C bewölkt
So, 28.02. 2:30 2.9° C bedeckt
So, 28.02. 2:00 2.5° C bedeckt
So, 28.02. 1:30 2.6° C bedeckt
So, 28.02. 1:00 3.0° C bedeckt
Ortszeit Relative Feuchte Sichtweite
So, 28.02. 1:00 87% 22 km
Sa, 27.02. 19:00 77% 22 km
Sa, 27.02. 13:00 66% 25 km
Sa, 27.02. 7:00 95% 9 km
Sa, 27.02. 1:00 81% 30 km
Fr, 26.02. 19:00 59% 40 km
Fr, 26.02. 13:00 73% 25 km
Fr, 26.02. 7:00 91% 9 km
Ortszeit Relative Feuchte Sichtweite
So, 28.02. 4:00 87% 25 km
So, 28.02. 3:50 87% -
So, 28.02. 3:40 87% -
So, 28.02. 3:30 87% 21 km
So, 28.02. 3:20 87% -
So, 28.02. 3:10 88% -
So, 28.02. 3:00 88% 19 km
So, 28.02. 2:30 90% 19 km
So, 28.02. 2:00 90% 15 km
So, 28.02. 1:30 93% 12 km
So, 28.02. 1:00 87% 22 km
Ortszeit Niederschlagsmenge Niederschlagsart
So, 28.02. 1:00 0.0 l/m2 in 6 Std. -
Sa, 27.02. 19:00 0.0 l/m2 in 12 Std. -
Sa, 27.02. 13:00 0.0 l/m2 in 6 Std. -
Sa, 27.02. 7:00 0.0 l/m2 in 12 Std. -
Sa, 27.02. 1:00 0.0 l/m2 in 6 Std. -
Fr, 26.02. 19:00 1 l/m2 in 12 Std. -
Fr, 26.02. 13:00 1 l/m2 in 6 Std. Regen
Fr, 26.02. 7:00 1 l/m2 in 12 Std. Regen
Ortszeit Niederschlagsmenge Niederschlagsart
So, 28.02. 4:00 0.0 l/m2 in 1 Std. -
So, 28.02. 3:50 keine Meldung -
So, 28.02. 3:40 keine Meldung -
So, 28.02. 3:30 0.0 l/m2 in 1 Std. -
So, 28.02. 3:20 keine Meldung -
So, 28.02. 3:10 keine Meldung -
So, 28.02. 3:00 0.0 l/m2 in 1 Std. -
So, 28.02. 2:30 0.0 l/m2 in 1 Std. -
So, 28.02. 2:00 0.0 l/m2 in 1 Std. -
So, 28.02. 1:30 0.0 l/m2 in 1 Std. -
So, 28.02. 1:00 0.0 l/m2 in 1 Std. -
Ortszeit Stärke Spitze Richtung
km/h Bft. km/h Grad Sektor
So, 28.02. 1:00 4 1 22 270° W
Sa, 27.02. 19:00 11 2 25 10° N
Sa, 27.02. 13:00 6 1 17 360° N
Sa, 27.02. 7:00 7 2 14 310° NW
Sa, 27.02. 1:00 7 2 25 310° NW
Fr, 26.02. 19:00 7 2 31 320° NW
Fr, 26.02. 13:00 11 2 25 320° NW
Fr, 26.02. 7:00 9 2 26 300° NW
Ortszeit Stärke Spitze Richtung
km/h Bft. km/h Grad Sektor
So, 28.02. 4:00 0 0 7 - -
So, 28.02. 3:50 2 1 - 100° O
So, 28.02. 3:40 2 1 - 110° O
So, 28.02. 3:30 4 1 7 130° SO
So, 28.02. 3:20 4 1 - 130° SO
So, 28.02. 3:10 2 1 - 180° S
So, 28.02. 3:00 4 1 4 190° S
So, 28.02. 2:30 0 0 4 - -
So, 28.02. 2:00 0 0 7 - -
So, 28.02. 1:30 4 1 7 10° N
So, 28.02. 1:00 4 1 7 270° W
Ortszeit Untergrenze Bedeckung Gattung
total tief tief mittel hoch
So, 28.02. 1:00 810 m 8/8 8/8 - - -
Sa, 27.02. 19:00 - 0/8 0/8 - - -
Sa, 27.02. 13:00 630 m 2/8 2/8 - - -
Sa, 27.02. 7:00 480 m 8/8 8/8 - - -
Sa, 27.02. 1:00 - 0/8 0/8 - - -
Fr, 26.02. 19:00 1410 m 7/8 7/8 - - -
Fr, 26.02. 13:00 690 m 8/8 2/8 - - -
Fr, 26.02. 7:00 330 m 8/8 8/8 - - -
Ortszeit Bedeckungsgrad in Achtel und Wolkenuntergrenze
So, 28.02. 4:00 3(840m) 6(10500m)
So, 28.02. 3:50 3(840m) 6(10500m)
So, 28.02. 3:40 5(840m)
So, 28.02. 3:30 6(840m)
So, 28.02. 3:20 6(840m)
So, 28.02. 3:10 7(870m) 7(10500m)
So, 28.02. 3:00 7(870m) 7(10500m)
So, 28.02. 2:30 8(840m)
So, 28.02. 2:00 8(810m)
So, 28.02. 1:30 8(810m)
So, 28.02. 1:00 8(810m)
Ortszeit Luftdruck NN (hPa) Tendenz (hPa in 3 Std.)
So, 28.02. 1:00 1040 - 0,1
Sa, 27.02. 19:00 1039 + 0,1
Sa, 27.02. 13:00 1041 0,0
Sa, 27.02. 7:00 1040 + 1,0
Sa, 27.02. 1:00 1038 + 1,3
Fr, 26.02. 19:00 1035 + 1,1
Fr, 26.02. 13:00 1035 + 0,9
Fr, 26.02. 7:00 1032 + 1,9
Ortszeit Luftdruck NN (hPa) Tendenz (hPa in 3 Std.)
So, 28.02. 4:00 1039 - 1,0
So, 28.02. 3:50 1039 keine Meldung
So, 28.02. 3:40 1039 keine Meldung
So, 28.02. 3:30 1039 - 0,8
So, 28.02. 3:20 1039 keine Meldung
So, 28.02. 3:10 1039 keine Meldung
So, 28.02. 3:00 1039 - 0,7
So, 28.02. 2:30 1040 - 0,2
So, 28.02. 2:00 1040 - 0,1
So, 28.02. 1:30 1040 - 0,2
So, 28.02. 1:00 1040 - 0,1
Ortszeit Schneehöhe (cm)
So, 28.02. 1:00 0
Sa, 27.02. 19:00 0
Sa, 27.02. 13:00 0
Sa, 27.02. 7:00 0
Sa, 27.02. 1:00 0
Fr, 26.02. 19:00 0
Fr, 26.02. 13:00 0
Fr, 26.02. 7:00 0
Ortszeit Schneehöhe (cm)
So, 28.02. 4:00 0
So, 28.02. 3:50 0
So, 28.02. 3:40 0
So, 28.02. 3:30 0
So, 28.02. 3:20 0
So, 28.02. 3:10 0
So, 28.02. 3:00 0
So, 28.02. 2:30 0
So, 28.02. 2:00 0
So, 28.02. 1:30 0
So, 28.02. 1:00 0
Link zu dieser Seite / Seite empfehlen

Das Wetter in ...